Wind_Speed
34 35 34 34 33 32 31 30 28 27 26 25 25 23 23 25 25 26 27 27 27 28 29 29 29 30 31 31 30 31 30 30 30 30 30 30 31 32 31 31 32 32 32
34 35 36 36 36 35 33 31 29 28 27 26 25 24 24 25 25 26 27 28 30 31 30 30 30 30 32 32 32 32 31 30 30 31 32 32 32 33 33 34 35 35 35
33 35 36 36 37 36 35 34 33 31 29 28 27 25 26 26 24 25 26 27 29 31 32 32 32 32 32 33 33 32 32 32 31 31 32 32 33 35 34 35 36 37 37
30 34 36 37 37 37 37 36 34 33 31 29 28 27 26 26 25 25 25 24 26 29 31 32 33 33 33 32 32 32 32 32 33 32 32 32 33 34 35 36 37 37 38
26 30 33 35 36 37 37 36 34 33 30 29 28 28 26 26 25 26 25 24 26 29 31 31 32 32 33 33 33 33 32 33 33 33 33 33 34 36 37 37 37 39 40
22 25 29 32 34 35 35 35 33 33 31 30 29 28 26 25 25 24 23 23 24 26 28 30 31 32 33 34 34 32 32 33 33 33 34 34 34 35 36 38 39 40 41
19 21 24 29 31 32 32 33 32 31 30 29 27 26 25 25 24 22 21 21 22 24 26 28 30 30 31 32 32 32 32 31 32 32 33 33 34 35 36 38 39 41 42
18 19 21 24 28 30 31 31 31 31 30 29 27 26 25 24 22 21 21 21 21 22 24 26 27 29 30 30 30 30 30 31 32 34 34 34 35 36 38 39 41 43 45
18 19 21 22 24 27 29 30 30 30 29 28 27 26 25 23 22 21 21 21 21 22 23 25 25 26 27 28 28 29 30 32 33 34 34 35 36 38 40 41 43 45 47
18 19 20 22 23 25 26 28 29 29 28 28 27 26 25 24 22 20 20 20 19 20 21 24 24 24 26 26 26 27 29 31 33 34 34 36 38 40 42 43 44 46 48
18 19 20 22 22 24 24 26 27 27 26 26 25 24 22 21 21 21 20 19 19 19 20 22 22 23 24 26 27 29 30 32 33 34 36 39 41 42 43 44 46 47 48
17 18 20 22 23 24 25 25 25 25 25 25 25 24 23 22 22 22 21 20 21 21 21 22 23 25 26 28 30 31 32 34 36 37 39 41 42 43 44 45 46 46 47
16 17 19 20 22 23 24 25 25 25 25 25 25 24 23 23 23 23 23 23 23 23 24 25 26 27 29 30 32 33 35 36 38 39 40 41 42 43 44 44 45 45 46
16 18 18 20 21 22 23 24 25 26 25 25 25 25 25 25 25 25 26 25 25 25 26 27 28 30 31 33 34 35 36 37 38 39 40 40 41 42 42 43 43 43 43
16 17 18 19 21 22 23 23 24 24 24 24 24 24 25 26 25 25 25 25 25 27 28 29 30 30 32 33 34 34 35 36 37 37 38 39 40 40 40 40 40 39 38
16 17 17 18 19 20 21 22 22 23 23 23 23 24 24 24 24 24 25 26 26 27 28 29 29 30 31 32 33 33 34 35 35 36 36 36 37 37 36 36 34 33 33
15 15 15 15 16 16 17 18 20 20 21 22 22 23 23 22 23 24 25 26 26 27 28 28 29 30 30 31 32 32 33 33 33 33 33 32 32 31 31 30 29 28 28
14 14 13 13 13 14 15 16 17 19 20 20 21 22 23 23 24 24 24 25 25 26 27 27 28 28 28 29 29 30 30 30 30 29 28 27 26 25 25 24 25 24 24
12 12 13 13 12 13 14 15 16 16 17 18 20 21 21 22 22 23 23 24 24 25 25 25 26 26 26 27 27 27 26 26 25 24 23 23 23 22 22 22 22 22 22
10 10 11 12 12 13 13 14 15 16 16 17 18 19 19 20 20 21 22 22 22 23 23 24 24 24 24 24 24 23 23 22 22 22 22 22 21 20 20 20 20 21 21
10 10 10 10 11 12 13 14 15 15 16 17 17 17 18 19 19 19 20 20 21 21 22 22 22 22 22 21 21 20 20 20 20 20 20 20 19 19 19 19 19 19 20
8 9 10 11 12 12 12 13 14 15 15 16 16 16 16 17 18 18 19 19 19 20 20 20 20 19 19 18 18 17 18 18 18 18 18 18 18 17 17 18 18 19 18
7 8 10 10 11 11 11 12 12 13 13 14 14 15 15 15 15 16 16 17 17 17 17 17 16 16 16 16 16 16 16 16 16 15 15 15 16 16 16 17 17 17 17
6 7 8 9 9 9 10 10 11 11 12 12 12 12 12 12 13 13 14 14 14 14 14 14 14 14 14 14 14 14 13 13 13 13 13 14 14 15 16 16 16 16 16
4 5 5 5 7 8 8 9 9 10 10 10 10 10 11 12 12 12 12 12 12 12 12 12 12 12 12 11 11 11 11 11 11 11 12 12 13 13 14 15 15 15 14
3 3 3 4 5 6 7 7 7 7 7 7 8 8 8 9 9 9 9 9 9 10 10 10 9 9 9 8 8 9 9 9 9 10 11 11 12 12 13 13 13 13 12
Wind_Direction
228 229 231 233 235 238 240 244 249 255 259 259 257 257 255 254 254 252 249 248 248 248 245 244 246 247 247 248 249 249 251 253 254 256 260 263 262 262 264 266 268 271 273
228 228 229 232 234 236 239 243 249 254 259 264 265 262 261 261 260 254 251 248 249 248 247 246 246 247 247 248 249 250 252 254 256 258 261 263 263 263 264 266 268 271 272
228 227 228 231 233 235 237 242 247 252 257 262 263 264 268 264 264 259 257 253 251 250 247 248 246 246 248 249 250 252 254 256 258 259 261 262 263 264 266 268 269 271 272
229 226 227 229 232 235 238 242 246 251 255 259 261 262 266 265 264 261 259 260 254 251 248 246 246 247 248 249 252 252 254 257 258 260 261 263 265 266 268 270 271 273 274
229 227 227 229 232 235 238 242 246 251 254 258 260 260 262 266 266 263 261 261 255 251 247 244 246 246 247 249 251 252 255 257 257 259 262 264 266 268 271 272 273 274 276
233 232 230 229 231 235 238 241 245 249 253 257 259 261 261 263 264 264 262 259 255 250 245 243 245 246 245 247 250 252 254 255 258 261 263 266 268 269 270 272 274 274 275
237 237 234 232 232 235 239 243 246 248 252 255 258 260 261 262 260 262 263 260 255 248 244 244 245 245 246 246 248 250 253 257 261 262 264 267 268 270 272 274 275 276 277
237 236 235 233 233 235 238 241 245 249 252 255 257 258 261 261 261 264 266 263 258 251 246 245 244 246 247 247 247 249 253 258 261 263 266 268 270 272 274 275 277 278 279
236 234 233 235 234 235 237 240 244 248 250 251 254 254 256 255 256 257 260 258 252 247 245 243 244 247 246 248 251 255 258 261 264 266 268 270 271 273 275 276 277 279 280
238 235 235 235 236 237 237 238 241 244 246 246 249 252 252 251 252 253 254 255 254 251 251 249 249 251 253 255 257 261 264 266 268 268 270 272 274 275 277 278 279 280 281
242 239 237 237 237 236 237 237 238 240 243 247 249 250 251 251 252 254 255 255 256 257 254 253 255 257 258 259 261 264 266 268 270 272 273 275 276 277 278 279 280 281 282
246 243 238 237 238 236 236 238 240 241 243 246 249 251 250 253 253 254 255 255 255 257 258 259 259 259 260 261 264 266 269 271 273 274 276 276 278 279 280 281 281 283 284
247 244 241 242 242 240 238 238 240 241 244 245 247 249 249 251 252 254 256 256 256 257 257 258 260 263 265 267 270 270 272 274 275 277 278 278 279 281 282 282 284 285 286
252 245 243 244 243 243 240 240 241 240 241 243 245 247 248 249 252 253 254 256 257 259 260 262 264 266 267 269 271 273 274 276 277 279 280 281 282 283 283 285 286 286 287
257 251 249 247 245 243 240 238 239 241 242 244 246 248 248 248 250 253 254 255 258 260 263 265 267 269 270 272 274 277 277 279 280 282 283 283 284 284 285 286 287 287 288
259 256 252 251 245 243 241 239 240 241 242 243 247 247 247 247 250 255 257 259 262 265 267 270 271 273 274 276 277 279 279 280 282 284 284 285 285 286 287 288 288 289 291
257 255 253 252 245 241 239 239 238 241 244 245 246 248 251 254 257 260 261 263 266 269 271 272 274 275 276 277 278 279 281 283 284 285 286 286 288 289 290 291 292 293 293
259 258 255 251 247 245 243 242 243 243 246 248 249 251 255 258 259 261 264 265 268 271 273 274 276 277 277 278 280 281 283 284 285 286 288 290 292 294 295 295 295 295 297
259 254 253 250 249 250 252 251 250 253 252 250 251 253 255 259 262 265 268 270 271 273 274 276 277 279 280 281 281 283 284 285 286 288 290 292 294 295 296 296 296 297 299
261 257 256 255 255 258 260 259 259 257 257 258 257 259 261 264 267 268 270 271 272 273 275 277 279 280 281 282 284 284 284 285 286 288 290 292 294 295 296 297 298 299 301
264 263 263 263 265 265 265 262 262 261 264 267 266 266 266 267 269 270 271 272 273 275 276 278 279 281 283 284 284 284 285 286 287 289 290 291 293 294 296 298 300 302 303
262 264 266 269 271 270 267 267 268 266 269 270 268 268 269 270 270 271 272 273 273 275 276 277 279 280 282 284 286 287 288 288 289 290 290 291 292 295 298 300 302 303 304
271 270 271 271 272 271 272 273 273 273 272 271 269 269 271 271 272 274 275 274 275 275 276 277 278 280 283 285 288 290 291 291 292 293 294 295 295 297 299 302 304 305 306
284 280 276 276 274 274 274 275 275 273 272 272 272 272 272 274 276 278 278 278 278 277 277 278 279 281 284 285 288 291 293 294 297 299 301 301 301 301 302 304 305 306 306
303 290 283 282 283 281 277 277 274 273 274 272 271 274 277 277 279 280 281 280 278 277 277 278 280 283 285 288 289 294 297 301 303 305 306 305 306 307 307 307 308 308 309
351 333 318 308 298 288 284 279 278 278 275 276 276 280 283 281 282 284 281 281 281 278 277 278 280 284 288 291 295 301 306 310 312 312 312 312 313 314 314 314 313 313 313
Height
5808 5811 5814 5817 5820 5822 5824 5826 5828 5829 5829 5830 5830 5831 5833 5834 5835 5835 5836 5837 5838 5840 5842 5844 5845 5846 5847 5849 5850 5851 5852 5853 5854 5854 5855 5854 5854 5854 5854 5853 5853 5852 5851
5801 5804 5808 5811 5814 5816 5819 5820 5822 5823 5825 5825 5825 5826 5827 5828 5829 5830 5830 5831 5833 5834 5835 5837 5838 5839 5841 5842 5843 5844 5846 5846 5847 5848 5848 5848 5848 5847 5847 5846 5846 5845 5844
5794 5797 5801 5804 5807 5810 5813 5815 5816 5818 5819 5820 5820 5821 5821 5821 5823 5823 5824 5825 5825 5826 5828 5830 5831 5833 5834 5835 5836 5838 5839 5840 5841 5840 5841 5841 5840 5840 5840 5839 5838 5837 5836
5787 5790 5794 5797 5800 5803 5806 5808 5809 5811 5813 5814 5815 5815 5815 5815 5817 5817 5817 5817 5818 5820 5821 5823 5824 5826 5827 5828 5830 5831 5832 5833 5834 5834 5833 5833 5833 5833 5832 5832 5830 5829 5828
5781 5784 5787 5790 5793 5796 5799 5801 5803 5805 5806 5807 5808 5809 5809 5810 5810 5810 5811 5811 5811 5812 5814 5815 5817 5818 5820 5821 5823 5824 5825 5826 5826 5826 5826 5826 5825 5825 5824 5823 5822 5821 5819
5776 5778 5781 5784 5787 5790 5793 5795 5797 5799 5800 5801 5802 5803 5803 5804 5804 5804 5805 5804 5804 5805 5806 5808 5810 5811 5812 5814 5816 5817 5818 5818 5818 5819 5819 5818 5817 5816 5815 5814 5813 5811 5810
5771 5773 5776 5779 5782 5784 5787 5789 5791 5793 5794 5795 5796 5797 5797 5798 5798 5799 5799 5798 5798 5799 5800 5801 5802 5804 5805 5807 5808 5809 5810 5810 5811 5811 5810 5810 5809 5808 5807 5805 5803 5801 5799
5767 5769 5771 5773 5775 5778 5781 5783 5785 5786 5788 5790 5791 5792 5792 5792 5793 5793 5793 5792 5792 5793 5794 5795 5796 5797 5798 5800 5801 5801 5802 5803 5803 5803 5802 5801 5800 5799 5798 5796 5794 5791 5789
5762 5764 5766 5768 5770 5772 5774 5777 5779 5781 5782 5784 5785 5786 5787 5787 5788 5788 5788 5787 5787 5788 5789 5790 5791 5791 5792 5793 5794 5795 5795 5795 5795 5794 5794 5793 5791 5790 5788 5786 5784 5781 5778
5757 5759 5760 5762 5764 5766 5768 5771 5773 5775 5776 5778 5779 5780 5780 5781 5782 5782 5782 5782 5782 5783 5783 5784 5785 5785 5786 5786 5787 5787 5787 5787 5787 5786 5785 5784 5782 5781 5778 5776 5773 5770 5767
5752 5754 5755 5757 5759 5761 5762 5764 5766 5768 5770 5771 5773 5774 5774 5774 5775 5776 5776 5777 5777 5777 5778 5779 5779 5779 5780 5780 5780 5780 5780 5779 5778 5777 5776 5775 5773 5770 5768 5766 5763 5759 5756
5747 5748 5750 5751 5753 5755 5757 5759 5760 5762 5764 5765 5766 5767 5768 5769 5769 5770 5770 5771 5772 5772 5772 5773 5773 5773 5773 5773 5773 5772 5772 5771 5769 5768 5766 5764 5762 5760 5757 5755 5752 5748 5744
5742 5743 5744 5746 5747 5749 5750 5752 5754 5756 5757 5759 5760 5761 5762 5762 5763 5763 5764 5765 5765 5765 5766 5766 5766 5766 5766 5765 5765 5764 5763 5762 5760 5758 5756 5754 5752 5750 5747 5744 5741 5737 5734
5737 5738 5739 5740 5741 5743 5744 5746 5747 5749 5751 5752 5753 5754 5755 5756 5757 5757 5758 5758 5758 5759 5759 5759 5758 5758 5758 5757 5756 5755 5754 5752 5751 5749 5747 5744 5742 5739 5736 5733 5730 5727 5723
5733 5733 5734 5735 5736 5737 5738 5740 5741 5743 5744 5746 5747 5748 5748 5749 5750 5750 5750 5751 5751 5751 5751 5751 5751 5750 5750 5748 5747 5746 5744 5743 5741 5739 5737 5734 5732 5729 5726 5723 5720 5716 5713
5728 5728 5729 5729 5730 5731 5732 5734 5735 5737 5738 5739 5740 5741 5742 5742 5743 5744 5744 5744 5744 5744 5744 5743 5743 5742 5741 5740 5739 5737 5736 5734 5732 5730 5727 5725 5722 5719 5716 5713 5710 5708 5705
5723 5723 5724 5724 5725 5726 5727 5728 5730 5731 5732 5733 5734 5735 5735 5736 5737 5737 5737 5737 5737 5737 5736 5736 5735 5734 5733 5732 5730 5729 5727 5725 5723 5721 5718 5716 5713 5711 5708 5705 5702 5700 5697
5719 5719 5720 5720 5721 5722 5723 5724 5724 5725 5726 5727 5728 5729 5729 5730 5730 5730 5731 5731 5730 5730 5729 5729 5728 5727 5725 5724 5722 5721 5719 5717 5715 5713 5711 5708 5706 5703 5701 5698 5696 5693 5691
5715 5715 5716 5716 5717 5718 5718 5719 5720 5720 5721 5722 5722 5723 5724 5724 5724 5724 5724 5724 5724 5723 5723 5722 5720 5719 5718 5716 5715 5713 5712 5710 5708 5706 5704 5702 5700 5698 5695 5693 5690 5687 5685
5712 5712 5713 5713 5713 5714 5714 5715 5716 5716 5717 5717 5717 5718 5718 5718 5718 5718 5718 5718 5717 5717 5716 5715 5714 5712 5711 5709 5708 5707 5705 5704 5702 5700 5698 5696 5695 5692 5690 5688 5685 5682 5680
5710 5710 5710 5710 5710 5710 5711 5711 5711 5711 5712 5712 5713 5713 5713 5713 5713 5713 5712 5712 5711 5710 5710 5709 5708 5706 5705 5703 5702 5701 5699 5698 5696 5695 5693 5691 5689 5687 5685 5683 5680 5677 5675
5707 5707 5707 5707 5707 5707 5707 5707 5707 5707 5707 5707 5708 5708 5708 5708 5708 5707 5707 5706 5705 5704 5704 5703 5702 5701 5699 5698 5697 5696 5694 5693 5691 5690 5688 5686 5684 5682 5680 5678 5675 5673 5670
5704 5704 5704 5704 5703 5703 5703 5703 5703 5703 5703 5703 5703 5703 5703 5703 5702 5702 5701 5700 5700 5699 5698 5698 5697 5696 5695 5693 5692 5691 5690 5688 5687 5685 5683 5681 5679 5677 5675 5673 5671 5668 5666
5702 5701 5701 5700 5700 5700 5700 5700 5699 5699 5699 5699 5699 5699 5699 5698 5698 5697 5696 5696 5695 5695 5694 5693 5692 5691 5690 5689 5688 5687 5686 5684 5683 5681 5679 5677 5675 5673 5671 5669 5667 5664 5662
5700 5699 5699 5698 5698 5697 5697 5696 5696 5695 5695 5695 5695 5695 5695 5694 5694 5693 5692 5692 5691 5690 5690 5689 5689 5688 5687 5686 5685 5684 5682 5681 5679 5677 5676 5674 5672 5670 5667 5665 5663 5660 5658
5699 5698 5697 5696 5696 5695 5694 5693 5693 5692 5692 5692 5692 5691 5691 5690 5690 5689 5689 5688 5688 5687 5687 5686 5686 5685 5684 5683 5682 5681 5680 5678 5676 5675 5673 5671 5669 5666 5664 5662 5659 5657 5655